Location: Newark
(45.4422°N, 16.2769°E)
Time: 16:11:56
(UTC+00:00)

Vanguard 2 - Pass Details

Date: 10 December 2019
Orbit: 553 x 2938 km, 32.9° (Epoch: 26 January)

Event Time Altitude Azimuth Distance (km) Brightness Sun altitude
Rises 05:54:34 0° 275° (W) 6,796 - -5.2°
Exits shadow 05:54:40 - 275° (W) 6,775 11.8 -5.2°
Reaches altitude 10° 05:59:53 10° 267° (W) 5,727 11.4 -4.4°
Maximum altitude 06:13:47 32° 214° (SSW) 3,664 11.0 -2.3°
Drops below altitude 10° 06:24:27 10° 157° (SSE) 4,356 12.4 -0.7°
Sets 06:27:52 0° 147° (SSE) 5,024 13.1 -0.2°
